Year,Month,Day,Hour,Minute,Value (Times are PST for windgust in km/hr)
2012,07,03,00,00,3.20
2012,07,03,00,01,3.20
2012,07,03,00,02,1.60
2012,07,03,00,10,1.60
2012,07,03,00,17,3.20
2012,07,03,00,23,1.60
2012,07,03,00,30,1.60
2012,07,03,00,45,1.60
2012,07,03,01,06,1.60
2012,07,03,01,25,1.60
2012,07,03,01,30,1.60
2012,07,03,01,33,1.60
2012,07,03,01,40,1.60
2012,07,03,01,41,1.60
2012,07,03,01,56,1.60
2012,07,03,01,57,3.20
2012,07,03,01,58,3.20
2012,07,03,01,59,1.60
2012,07,03,02,00,3.20
2012,07,03,02,01,3.20
2012,07,03,02,02,1.60
2012,07,03,02,25,1.60
2012,07,03,02,55,1.60
2012,07,03,03,11,8.10
2012,07,03,03,12,8.10
2012,07,03,03,13,6.40
2012,07,03,03,14,3.20
2012,07,03,03,15,4.80
2012,07,03,03,16,3.20
2012,07,03,03,17,8.10
2012,07,03,03,18,9.60
2012,07,03,03,19,4.80
2012,07,03,03,20,1.60
2012,07,03,03,21,3.20
2012,07,03,03,22,3.20
2012,07,03,03,23,6.40
2012,07,03,03,24,6.40
2012,07,03,03,25,3.20
2012,07,03,03,26,4.80
2012,07,03,03,27,6.40
2012,07,03,03,28,8.10
2012,07,03,03,29,4.80
2012,07,03,03,30,1.60
2012,07,03,03,31,8.10
2012,07,03,03,32,6.40
2012,07,03,03,34,4.80
2012,07,03,03,35,3.20
2012,07,03,03,36,3.20
2012,07,03,03,37,4.80
2012,07,03,03,38,8.10
2012,07,03,03,39,3.20
2012,07,03,03,40,6.40
2012,07,03,03,41,4.80
2012,07,03,03,42,1.60
2012,07,03,03,43,1.60
2012,07,03,03,46,3.20
2012,07,03,03,47,4.80
2012,07,03,03,48,1.60
2012,07,03,03,49,4.80
2012,07,03,03,50,3.20
2012,07,03,03,51,1.60
2012,07,03,03,53,1.60
2012,07,03,03,54,4.80
2012,07,03,03,55,4.80
2012,07,03,04,15,3.20
2012,07,03,04,21,4.80
2012,07,03,04,22,4.80
2012,07,03,04,23,6.40
2012,07,03,04,24,6.40
2012,07,03,04,25,4.80
2012,07,03,04,26,4.80
2012,07,03,04,27,3.20
2012,07,03,04,28,3.20
2012,07,03,04,29,3.20
2012,07,03,04,30,3.20
2012,07,03,04,31,1.60
2012,07,03,04,32,1.60
2012,07,03,04,34,1.60
2012,07,03,04,35,6.40
2012,07,03,04,36,3.20
2012,07,03,04,40,3.20
2012,07,03,04,41,3.20
2012,07,03,04,42,4.80
2012,07,03,04,43,6.40
2012,07,03,04,44,6.40
2012,07,03,04,45,8.10
2012,07,03,04,46,4.80
2012,07,03,04,47,6.40
2012,07,03,04,48,3.20
2012,07,03,04,49,3.20
2012,07,03,04,50,6.40
2012,07,03,04,51,3.20
2012,07,03,04,52,8.10
2012,07,03,04,53,4.80
2012,07,03,04,54,1.60
2012,07,03,04,55,1.60
2012,07,03,04,56,1.60
2012,07,03,04,57,4.80
2012,07,03,04,58,4.80
2012,07,03,04,59,4.80
2012,07,03,05,00,4.80
2012,07,03,05,03,3.20
2012,07,03,05,04,3.20
2012,07,03,05,06,1.60
2012,07,03,05,09,1.60
2012,07,03,05,38,1.60
2012,07,03,06,55,1.60
2012,07,03,06,57,3.20
2012,07,03,06,58,1.60
2012,07,03,07,02,3.20
2012,07,03,07,03,3.20
2012,07,03,07,04,1.60
2012,07,03,07,27,1.60
2012,07,03,08,46,1.60
2012,07,03,08,53,1.60
2012,07,03,08,54,1.60
2012,07,03,08,55,1.60
2012,07,03,09,03,4.80
2012,07,03,09,04,1.60
2012,07,03,09,05,4.80
2012,07,03,09,06,3.20
2012,07,03,09,07,3.20
2012,07,03,09,08,6.40
2012,07,03,09,09,6.40
2012,07,03,09,10,4.80
2012,07,03,09,11,6.40
2012,07,03,09,12,4.80
2012,07,03,09,13,3.20
2012,07,03,09,14,1.60
2012,07,03,09,15,6.40
2012,07,03,09,16,3.20
2012,07,03,09,17,4.80
2012,07,03,09,18,6.40
2012,07,03,09,19,6.40
2012,07,03,09,21,6.40
2012,07,03,09,22,9.60
2012,07,03,09,23,9.60
2012,07,03,09,24,8.10
2012,07,03,09,25,6.40
2012,07,03,09,26,6.40
2012,07,03,09,27,6.40
2012,07,03,09,28,6.40
2012,07,03,09,29,3.20
2012,07,03,09,30,8.10
2012,07,03,09,31,1.60
2012,07,03,09,32,6.40
2012,07,03,09,33,9.60
2012,07,03,09,34,6.40
2012,07,03,09,35,9.60
2012,07,03,09,36,8.10
2012,07,03,09,37,4.80
2012,07,03,09,38,8.10
2012,07,03,09,39,14.50
2012,07,03,09,40,16.10
2012,07,03,09,41,14.50
2012,07,03,09,42,6.40
2012,07,03,09,43,8.10
2012,07,03,09,44,8.10
2012,07,03,09,45,8.10
2012,07,03,09,46,14.50
2012,07,03,09,47,9.60
2012,07,03,09,48,11.30
2012,07,03,09,49,11.30
2012,07,03,09,50,11.30
2012,07,03,09,51,8.10
2012,07,03,09,52,6.40
2012,07,03,09,53,6.40
2012,07,03,09,54,6.40
2012,07,03,09,55,9.60
2012,07,03,09,56,8.10
2012,07,03,09,57,8.10
2012,07,03,09,58,8.10
2012,07,03,09,59,11.30
2012,07,03,10,00,9.60
2012,07,03,10,01,6.40
2012,07,03,10,02,6.40
2012,07,03,10,03,4.80
2012,07,03,10,04,6.40
2012,07,03,10,05,4.80
2012,07,03,10,06,8.10
2012,07,03,10,07,8.10
2012,07,03,10,08,9.60
2012,07,03,10,09,9.60
2012,07,03,10,10,4.80
2012,07,03,10,11,9.60
2012,07,03,10,12,8.10
2012,07,03,10,13,6.40
2012,07,03,10,14,8.10
2012,07,03,10,15,6.40
2012,07,03,10,16,6.40
2012,07,03,10,17,4.80
2012,07,03,10,18,6.40
2012,07,03,10,19,6.40
2012,07,03,10,20,6.40
2012,07,03,10,21,3.20
2012,07,03,10,22,6.40
2012,07,03,10,23,6.40
2012,07,03,10,24,8.10
2012,07,03,10,25,9.60
2012,07,03,10,26,4.80
2012,07,03,10,28,4.80
2012,07,03,10,29,6.40
2012,07,03,10,30,6.40
2012,07,03,10,31,4.80
2012,07,03,10,32,9.60
2012,07,03,10,33,8.10
2012,07,03,10,34,6.40
2012,07,03,10,35,3.20
2012,07,03,10,36,1.60
2012,07,03,10,37,6.40
2012,07,03,10,38,6.40
2012,07,03,10,39,8.10
2012,07,03,10,40,4.80
2012,07,03,10,41,8.10
2012,07,03,10,42,8.10
2012,07,03,10,43,6.40
2012,07,03,10,44,1.60
2012,07,03,10,45,8.10
2012,07,03,10,46,4.80
2012,07,03,10,47,8.10
2012,07,03,10,48,8.10
2012,07,03,10,49,9.60
2012,07,03,10,50,8.10
2012,07,03,10,51,8.10
2012,07,03,10,52,9.60
2012,07,03,10,53,6.40
2012,07,03,10,54,4.80
2012,07,03,10,55,4.80
2012,07,03,10,56,6.40
2012,07,03,10,57,9.60
2012,07,03,10,58,8.10
2012,07,03,10,59,8.10
2012,07,03,11,00,11.30
2012,07,03,11,01,14.50
2012,07,03,11,02,8.10
2012,07,03,11,03,9.60
2012,07,03,11,04,11.30
2012,07,03,11,05,8.10
2012,07,03,11,06,14.50
2012,07,03,11,07,14.50
2012,07,03,11,08,9.60
2012,07,03,11,09,9.60
2012,07,03,11,10,16.10
2012,07,03,11,11,12.90
2012,07,03,11,12,8.10
2012,07,03,11,13,8.10
2012,07,03,11,14,8.10
2012,07,03,11,15,8.10
2012,07,03,11,16,9.60
2012,07,03,11,17,9.60
2012,07,03,11,18,9.60
2012,07,03,11,19,16.10
2012,07,03,11,20,17.70
2012,07,03,11,21,19.30
2012,07,03,11,22,20.90
2012,07,03,11,23,17.70
2012,07,03,11,24,11.30
2012,07,03,11,25,17.70
2012,07,03,11,26,22.50
2012,07,03,11,27,14.50
2012,07,03,11,28,16.10
2012,07,03,11,29,16.10
2012,07,03,11,30,12.90
2012,07,03,11,31,11.30
2012,07,03,11,32,8.10
2012,07,03,11,33,33.80
2012,07,03,11,34,29.00
2012,07,03,11,35,22.50
2012,07,03,11,36,11.30
2012,07,03,11,37,20.90
2012,07,03,11,38,25.70
2012,07,03,11,39,19.30
2012,07,03,11,40,17.70
2012,07,03,11,41,17.70
2012,07,03,11,42,27.40
2012,07,03,11,43,37.00
2012,07,03,11,44,38.60
2012,07,03,11,45,30.60
2012,07,03,11,46,30.60
2012,07,03,11,47,29.00
2012,07,03,11,48,29.00
2012,07,03,11,49,30.60
2012,07,03,11,50,14.50
2012,07,03,11,51,27.40
2012,07,03,11,52,24.20
2012,07,03,11,53,24.20
2012,07,03,11,54,32.20
2012,07,03,11,55,30.60
2012,07,03,11,56,22.50
2012,07,03,11,57,35.40
2012,07,03,11,58,35.40
2012,07,03,11,59,27.40
2012,07,03,12,00,32.20
2012,07,03,12,01,35.40
2012,07,03,12,02,32.20
2012,07,03,12,03,41.80
2012,07,03,12,04,29.00
2012,07,03,12,05,32.20
2012,07,03,12,06,30.60
2012,07,03,12,07,29.00
2012,07,03,12,08,35.40
2012,07,03,12,09,38.60
2012,07,03,12,10,38.60
2012,07,03,12,11,25.70
2012,07,03,12,12,27.40
2012,07,03,12,13,22.50
2012,07,03,12,14,24.20
2012,07,03,12,15,27.40
2012,07,03,12,16,27.40
2012,07,03,12,17,32.20
2012,07,03,12,18,37.00
2012,07,03,12,19,33.80
2012,07,03,12,20,32.20
2012,07,03,12,21,24.20
2012,07,03,12,22,29.00
2012,07,03,12,23,37.00
2012,07,03,12,24,40.20
2012,07,03,12,25,27.40
2012,07,03,12,26,37.00
2012,07,03,12,27,35.40
2012,07,03,12,28,49.90
2012,07,03,12,29,29.00
2012,07,03,12,30,38.60
2012,07,03,12,31,46.70
2012,07,03,12,32,33.80
2012,07,03,12,33,37.00
2012,07,03,12,34,40.20
2012,07,03,12,35,37.00
2012,07,03,12,36,40.20
2012,07,03,12,37,37.00
2012,07,03,12,38,40.20
2012,07,03,12,39,25.70
2012,07,03,12,40,25.70
2012,07,03,12,41,33.80
2012,07,03,12,42,37.00
2012,07,03,12,43,43.50
2012,07,03,12,44,35.40
2012,07,03,12,45,35.40
2012,07,03,12,46,27.40
2012,07,03,12,47,30.60
2012,07,03,12,48,37.00
2012,07,03,12,49,29.00
2012,07,03,12,50,38.60
2012,07,03,12,51,32.20
2012,07,03,12,52,20.90
2012,07,03,12,53,35.40
2012,07,03,12,54,32.20
2012,07,03,12,55,24.20
2012,07,03,12,56,29.00
2012,07,03,12,57,32.20
2012,07,03,12,58,29.00
2012,07,03,12,59,33.80
2012,07,03,13,00,32.20
2012,07,03,13,01,33.80
2012,07,03,13,02,30.60
2012,07,03,13,03,32.20
2012,07,03,13,04,32.20
2012,07,03,13,05,33.80
2012,07,03,13,06,29.00
2012,07,03,13,07,30.60
2012,07,03,13,08,33.80
2012,07,03,13,09,35.40
2012,07,03,13,10,35.40
2012,07,03,13,11,30.60
2012,07,03,13,12,30.60
2012,07,03,13,13,33.80
2012,07,03,13,14,32.20
2012,07,03,13,15,20.90
2012,07,03,13,16,17.70
2012,07,03,13,17,35.40
2012,07,03,13,18,30.60
2012,07,03,13,19,27.40
2012,07,03,13,20,24.20
2012,07,03,13,21,24.20
2012,07,03,13,22,27.40
2012,07,03,13,23,22.50
2012,07,03,13,24,20.90
2012,07,03,13,25,22.50
2012,07,03,13,26,30.60
2012,07,03,13,27,32.20
2012,07,03,13,28,33.80
2012,07,03,13,29,29.00
2012,07,03,13,30,27.40
2012,07,03,13,31,30.60
2012,07,03,13,32,25.70
2012,07,03,13,33,27.40
2012,07,03,13,34,25.70
2012,07,03,13,35,35.40
2012,07,03,13,36,25.70
2012,07,03,13,37,35.40
2012,07,03,13,38,33.80
2012,07,03,13,39,37.00
2012,07,03,13,40,32.20
2012,07,03,13,41,27.40
2012,07,03,13,42,27.40
2012,07,03,13,43,19.30
2012,07,03,13,44,22.50
2012,07,03,13,45,30.60
2012,07,03,13,46,29.00
2012,07,03,13,47,35.40
2012,07,03,13,48,32.20
2012,07,03,13,49,27.40
2012,07,03,13,50,38.60
2012,07,03,13,51,33.80
2012,07,03,13,52,32.20
2012,07,03,13,53,37.00
2012,07,03,13,54,38.60
2012,07,03,13,55,33.80
2012,07,03,13,56,37.00
2012,07,03,13,57,27.40
2012,07,03,13,58,27.40
2012,07,03,13,59,25.70
2012,07,03,14,00,37.00
2012,07,03,14,01,30.60
2012,07,03,14,02,32.20
2012,07,03,14,03,17.70
2012,07,03,14,04,30.60
2012,07,03,14,05,33.80
2012,07,03,14,06,27.40
2012,07,03,14,07,29.00
2012,07,03,14,08,29.00
2012,07,03,14,09,32.20
2012,07,03,14,10,22.50
2012,07,03,14,11,29.00
2012,07,03,14,12,27.40
2012,07,03,14,13,19.30
2012,07,03,14,14,24.20
2012,07,03,14,15,19.30
2012,07,03,14,16,19.30
2012,07,03,14,17,30.60
2012,07,03,14,18,30.60
2012,07,03,14,19,40.20
2012,07,03,14,20,22.50
2012,07,03,14,21,20.90
2012,07,03,14,22,32.20
2012,07,03,14,23,27.40
2012,07,03,14,24,22.50
2012,07,03,14,25,29.00
2012,07,03,14,26,25.70
2012,07,03,14,27,25.70
2012,07,03,14,28,27.40
2012,07,03,14,29,33.80
2012,07,03,14,30,29.00
2012,07,03,14,31,24.20
2012,07,03,14,32,20.90
2012,07,03,14,33,30.60
2012,07,03,14,34,22.50
2012,07,03,14,35,20.90
2012,07,03,14,36,29.00
2012,07,03,14,37,27.40
2012,07,03,14,38,22.50
2012,07,03,14,39,29.00
2012,07,03,14,40,33.80
2012,07,03,14,41,33.80
2012,07,03,14,42,40.20
2012,07,03,14,43,25.70
2012,07,03,14,44,29.00
2012,07,03,14,45,19.30
2012,07,03,14,46,43.50
2012,07,03,14,47,40.20
2012,07,03,14,48,43.50
2012,07,03,14,49,19.30
2012,07,03,14,50,27.40
2012,07,03,14,51,27.40
2012,07,03,14,52,33.80
2012,07,03,14,53,40.20
2012,07,03,14,54,25.70
2012,07,03,14,55,25.70
2012,07,03,14,56,11.30
2012,07,03,14,57,27.40
2012,07,03,14,58,19.30
2012,07,03,14,59,25.70
2012,07,03,15,00,22.50
2012,07,03,15,01,19.30
2012,07,03,15,02,11.30
2012,07,03,15,03,14.50
2012,07,03,15,04,20.90
2012,07,03,15,05,25.70
2012,07,03,15,06,27.40
2012,07,03,15,07,16.10
2012,07,03,15,08,29.00
2012,07,03,15,09,25.70
2012,07,03,15,10,37.00
2012,07,03,15,11,22.50
2012,07,03,15,12,37.00
2012,07,03,15,13,25.70
2012,07,03,15,14,29.00
2012,07,03,15,15,32.20
2012,07,03,15,16,17.70
2012,07,03,15,17,17.70
2012,07,03,15,18,22.50
2012,07,03,15,19,16.10
2012,07,03,15,20,22.50
2012,07,03,15,21,29.00
2012,07,03,15,22,32.20
2012,07,03,15,23,27.40
2012,07,03,15,24,22.50
2012,07,03,15,25,11.30
2012,07,03,15,26,8.10
2012,07,03,15,27,8.10
2012,07,03,15,28,22.50
2012,07,03,15,29,24.20
2012,07,03,15,30,22.50
2012,07,03,15,31,24.20
2012,07,03,15,32,14.50
2012,07,03,15,33,14.50
2012,07,03,15,34,11.30
2012,07,03,15,35,8.10
2012,07,03,15,36,24.20
2012,07,03,15,37,32.20
2012,07,03,15,38,30.60
2012,07,03,15,39,20.90
2012,07,03,15,40,24.20
2012,07,03,15,41,20.90
2012,07,03,15,42,27.40
2012,07,03,15,43,24.20
2012,07,03,15,44,9.60
2012,07,03,15,45,20.90
2012,07,03,15,46,16.10
2012,07,03,15,47,30.60
2012,07,03,15,48,17.70
2012,07,03,15,49,25.70
2012,07,03,15,50,24.20
2012,07,03,15,51,29.00
2012,07,03,15,52,25.70
2012,07,03,15,53,29.00
2012,07,03,15,54,32.20
2012,07,03,15,55,24.20
2012,07,03,15,56,19.30
2012,07,03,15,57,38.60
2012,07,03,15,58,24.20
2012,07,03,15,59,30.60
2012,07,03,16,00,16.10
2012,07,03,16,01,27.40
2012,07,03,16,02,19.30
2012,07,03,16,03,20.90
2012,07,03,16,04,25.70
2012,07,03,16,05,27.40
2012,07,03,16,06,27.40
2012,07,03,16,07,20.90
2012,07,03,16,08,19.30
2012,07,03,16,09,25.70
2012,07,03,16,10,24.20
2012,07,03,16,11,20.90
2012,07,03,16,12,29.00
2012,07,03,16,13,24.20
2012,07,03,16,14,27.40
2012,07,03,16,15,30.60
2012,07,03,16,16,29.00
2012,07,03,16,17,29.00
2012,07,03,16,18,27.40
2012,07,03,16,19,30.60
2012,07,03,16,20,25.70
2012,07,03,16,21,37.00
2012,07,03,16,22,32.20
2012,07,03,16,23,35.40
2012,07,03,16,24,24.20
2012,07,03,16,25,32.20
2012,07,03,16,26,29.00
2012,07,03,16,27,27.40
2012,07,03,16,28,27.40
2012,07,03,16,29,25.70
2012,07,03,16,30,20.90
2012,07,03,16,31,27.40
2012,07,03,16,32,29.00
2012,07,03,16,33,29.00
2012,07,03,16,34,30.60
2012,07,03,16,35,27.40
2012,07,03,16,36,27.40
2012,07,03,16,37,30.60
2012,07,03,16,38,25.70
2012,07,03,16,39,37.00
2012,07,03,16,40,32.20
2012,07,03,16,41,32.20
2012,07,03,16,42,30.60
2012,07,03,16,43,32.20
2012,07,03,16,44,19.30
2012,07,03,16,45,22.50
2012,07,03,16,46,29.00
2012,07,03,16,47,30.60
2012,07,03,16,48,29.00
2012,07,03,16,49,24.20
2012,07,03,16,50,32.20
2012,07,03,16,51,35.40
2012,07,03,16,52,25.70
2012,07,03,16,53,38.60
2012,07,03,16,54,29.00
2012,07,03,16,55,33.80
2012,07,03,16,56,32.20
2012,07,03,16,57,35.40
2012,07,03,16,58,25.70
2012,07,03,16,59,29.00
2012,07,03,17,00,29.00
2012,07,03,17,01,24.20
2012,07,03,17,02,25.70
2012,07,03,17,03,27.40
2012,07,03,17,04,24.20
2012,07,03,17,05,24.20
2012,07,03,17,06,24.20
2012,07,03,17,07,33.80
2012,07,03,17,08,33.80
2012,07,03,17,09,32.20
2012,07,03,17,10,27.40
2012,07,03,17,11,37.00
2012,07,03,17,12,33.80
2012,07,03,17,13,32.20
2012,07,03,17,14,37.00
2012,07,03,17,15,35.40
2012,07,03,17,16,32.20
2012,07,03,17,17,33.80
2012,07,03,17,18,32.20
2012,07,03,17,19,25.70
2012,07,03,17,20,27.40
2012,07,03,17,21,32.20
2012,07,03,17,22,30.60
2012,07,03,17,23,24.20
2012,07,03,17,24,29.00
2012,07,03,17,25,27.40
2012,07,03,17,26,35.40
2012,07,03,17,27,24.20
2012,07,03,17,28,32.20
2012,07,03,17,29,27.40
2012,07,03,17,30,27.40
2012,07,03,17,31,32.20
2012,07,03,17,32,30.60
2012,07,03,17,33,35.40
2012,07,03,17,34,27.40
2012,07,03,17,35,35.40
2012,07,03,17,36,29.00
2012,07,03,17,37,37.00
2012,07,03,17,38,30.60
2012,07,03,17,39,35.40
2012,07,03,17,40,35.40
2012,07,03,17,41,20.90
2012,07,03,17,42,37.00
2012,07,03,17,43,29.00
2012,07,03,17,44,37.00
2012,07,03,17,45,25.70
2012,07,03,17,46,22.50
2012,07,03,17,47,24.20
2012,07,03,17,48,33.80
2012,07,03,17,49,27.40
2012,07,03,17,50,24.20
2012,07,03,17,51,29.00
2012,07,03,17,52,20.90
2012,07,03,17,53,30.60
2012,07,03,17,54,37.00
2012,07,03,17,55,30.60
2012,07,03,17,56,25.70
2012,07,03,17,57,25.70
2012,07,03,17,58,33.80
2012,07,03,17,59,29.00
2012,07,03,18,00,22.50
2012,07,03,18,01,27.40
2012,07,03,18,02,29.00
2012,07,03,18,03,35.40
2012,07,03,18,04,33.80
2012,07,03,18,05,35.40
2012,07,03,18,06,37.00
2012,07,03,18,07,33.80
2012,07,03,18,08,32.20
2012,07,03,18,09,37.00
2012,07,03,18,10,33.80
2012,07,03,18,11,32.20
2012,07,03,18,12,37.00
2012,07,03,18,13,35.40
2012,07,03,18,14,32.20
2012,07,03,18,15,35.40
2012,07,03,18,16,41.80
2012,07,03,18,17,27.40
2012,07,03,18,18,22.50
2012,07,03,18,19,32.20
2012,07,03,18,20,41.80
2012,07,03,18,21,29.00
2012,07,03,18,22,33.80
2012,07,03,18,23,27.40
2012,07,03,18,24,30.60
2012,07,03,18,25,33.80
2012,07,03,18,26,32.20
2012,07,03,18,27,29.00
2012,07,03,18,28,27.40
2012,07,03,18,29,25.70
2012,07,03,18,30,24.20
2012,07,03,18,31,27.40
2012,07,03,18,32,29.00
2012,07,03,18,33,32.20
2012,07,03,18,34,27.40
2012,07,03,18,35,17.70
2012,07,03,18,36,20.90
2012,07,03,18,37,11.30
2012,07,03,18,38,19.30
2012,07,03,18,39,24.20
2012,07,03,18,40,22.50
2012,07,03,18,41,27.40
2012,07,03,18,42,17.70
2012,07,03,18,43,17.70
2012,07,03,18,44,19.30
2012,07,03,18,45,16.10
2012,07,03,18,46,17.70
2012,07,03,18,47,14.50
2012,07,03,18,48,14.50
2012,07,03,18,49,20.90
2012,07,03,18,50,17.70
2012,07,03,18,51,19.30
2012,07,03,18,52,22.50
2012,07,03,18,53,25.70
2012,07,03,18,54,32.20
2012,07,03,18,55,25.70
2012,07,03,18,56,38.60
2012,07,03,18,57,37.00
2012,07,03,18,58,35.40
2012,07,03,18,59,32.20
2012,07,03,19,00,25.70
2012,07,03,19,01,25.70
2012,07,03,19,02,27.40
2012,07,03,19,03,22.50
2012,07,03,19,04,32.20
2012,07,03,19,05,32.20
2012,07,03,19,06,27.40
2012,07,03,19,07,29.00
2012,07,03,19,08,19.30
2012,07,03,19,09,24.20
2012,07,03,19,10,24.20
2012,07,03,19,11,22.50
2012,07,03,19,12,24.20
2012,07,03,19,13,30.60
2012,07,03,19,14,14.50
2012,07,03,19,15,20.90
2012,07,03,19,16,24.20
2012,07,03,19,17,16.10
2012,07,03,19,18,19.30
2012,07,03,19,19,27.40
2012,07,03,19,20,22.50
2012,07,03,19,21,17.70
2012,07,03,19,22,29.00
2012,07,03,19,23,29.00
2012,07,03,19,24,30.60
2012,07,03,19,25,25.70
2012,07,03,19,26,25.70
2012,07,03,19,27,19.30
2012,07,03,19,28,32.20
2012,07,03,19,29,32.20
2012,07,03,19,30,27.40
2012,07,03,19,31,25.70
2012,07,03,19,32,33.80
2012,07,03,19,33,25.70
2012,07,03,19,34,25.70
2012,07,03,19,35,27.40
2012,07,03,19,36,25.70
2012,07,03,19,37,24.20
2012,07,03,19,38,27.40
2012,07,03,19,39,32.20
2012,07,03,19,40,35.40
2012,07,03,19,41,30.60
2012,07,03,19,42,22.50
2012,07,03,19,43,24.20
2012,07,03,19,44,25.70
2012,07,03,19,45,32.20
2012,07,03,19,46,27.40
2012,07,03,19,47,20.90
2012,07,03,19,48,30.60
2012,07,03,19,49,19.30
2012,07,03,19,50,33.80
2012,07,03,19,51,32.20
2012,07,03,19,52,22.50
2012,07,03,19,53,29.00
2012,07,03,19,54,27.40
2012,07,03,19,55,24.20
2012,07,03,19,56,16.10
2012,07,03,19,57,19.30
2012,07,03,19,58,24.20
2012,07,03,19,59,19.30
2012,07,03,20,00,22.50
2012,07,03,20,01,19.30
2012,07,03,20,02,25.70
2012,07,03,20,03,30.60
2012,07,03,20,04,25.70
2012,07,03,20,05,25.70
2012,07,03,20,06,20.90
2012,07,03,20,07,24.20
2012,07,03,20,08,24.20
2012,07,03,20,09,25.70
2012,07,03,20,10,24.20
2012,07,03,20,11,27.40
2012,07,03,20,12,22.50
2012,07,03,20,13,25.70
2012,07,03,20,14,27.40
2012,07,03,20,15,30.60
2012,07,03,20,16,22.50
2012,07,03,20,17,24.20
2012,07,03,20,18,24.20
2012,07,03,20,19,20.90
2012,07,03,20,20,24.20
2012,07,03,20,21,25.70
2012,07,03,20,22,22.50
2012,07,03,20,23,20.90
2012,07,03,20,24,20.90
2012,07,03,20,25,24.20
2012,07,03,20,26,19.30
2012,07,03,20,27,22.50
2012,07,03,20,28,29.00
2012,07,03,20,29,27.40
2012,07,03,20,30,20.90
2012,07,03,20,31,25.70
2012,07,03,20,32,25.70
2012,07,03,20,33,20.90
2012,07,03,20,34,17.70
2012,07,03,20,35,22.50
2012,07,03,20,36,19.30
2012,07,03,20,37,22.50
2012,07,03,20,38,22.50
2012,07,03,20,39,16.10
2012,07,03,20,40,19.30
2012,07,03,20,41,24.20
2012,07,03,20,42,25.70
2012,07,03,20,43,20.90
2012,07,03,20,44,17.70
2012,07,03,20,45,17.70
2012,07,03,20,46,22.50
2012,07,03,20,47,24.20
2012,07,03,20,48,27.40
2012,07,03,20,49,20.90
2012,07,03,20,50,14.50
2012,07,03,20,51,20.90
2012,07,03,20,52,17.70
2012,07,03,20,53,19.30
2012,07,03,20,54,20.90
2012,07,03,20,55,19.30
2012,07,03,20,56,14.50
2012,07,03,20,57,14.50
2012,07,03,20,58,11.30
2012,07,03,20,59,20.90
2012,07,03,21,00,24.20
2012,07,03,21,01,8.10
2012,07,03,21,02,14.50
2012,07,03,21,03,9.60
2012,07,03,21,04,17.70
2012,07,03,21,05,20.90
2012,07,03,21,06,16.10
2012,07,03,21,07,20.90
2012,07,03,21,08,17.70
2012,07,03,21,09,16.10
2012,07,03,21,10,22.50
2012,07,03,21,11,16.10
2012,07,03,21,12,19.30
2012,07,03,21,13,16.10
2012,07,03,21,14,19.30
2012,07,03,21,15,22.50
2012,07,03,21,16,19.30
2012,07,03,21,17,17.70
2012,07,03,21,18,17.70
2012,07,03,21,19,17.70
2012,07,03,21,20,17.70
2012,07,03,21,21,19.30
2012,07,03,21,22,22.50
2012,07,03,21,23,19.30
2012,07,03,21,24,22.50
2012,07,03,21,25,19.30
2012,07,03,21,26,25.70
2012,07,03,21,27,24.20
2012,07,03,21,28,24.20
2012,07,03,21,29,20.90
2012,07,03,21,30,17.70
2012,07,03,21,31,19.30
2012,07,03,21,32,14.50
2012,07,03,21,33,16.10
2012,07,03,21,34,14.50
2012,07,03,21,35,16.10
2012,07,03,21,36,19.30
2012,07,03,21,37,20.90
2012,07,03,21,38,17.70
2012,07,03,21,39,17.70
2012,07,03,21,40,20.90
2012,07,03,21,41,17.70
2012,07,03,21,42,16.10
2012,07,03,21,43,24.20
2012,07,03,21,44,22.50
2012,07,03,21,45,19.30
2012,07,03,21,46,11.30
2012,07,03,21,47,9.60
2012,07,03,21,48,14.50
2012,07,03,21,49,16.10
2012,07,03,21,50,16.10
2012,07,03,21,51,19.30
2012,07,03,21,52,24.20
2012,07,03,21,53,19.30
2012,07,03,21,54,19.30
2012,07,03,21,55,22.50
2012,07,03,21,56,22.50
2012,07,03,21,57,22.50
2012,07,03,21,58,12.90
2012,07,03,21,59,20.90
2012,07,03,22,00,19.30
2012,07,03,22,01,22.50
2012,07,03,22,02,20.90
2012,07,03,22,03,19.30
2012,07,03,22,04,19.30
2012,07,03,22,05,22.50
2012,07,03,22,06,19.30
2012,07,03,22,07,17.70
2012,07,03,22,08,20.90
2012,07,03,22,09,19.30
2012,07,03,22,10,19.30
2012,07,03,22,11,16.10
2012,07,03,22,12,11.30
2012,07,03,22,13,24.20
2012,07,03,22,14,16.10
2012,07,03,22,15,17.70
2012,07,03,22,16,16.10
2012,07,03,22,17,11.30
2012,07,03,22,18,16.10
2012,07,03,22,19,17.70
2012,07,03,22,20,19.30
2012,07,03,22,21,16.10
2012,07,03,22,22,16.10
2012,07,03,22,23,11.30
2012,07,03,22,24,20.90
2012,07,03,22,25,16.10
2012,07,03,22,26,17.70
2012,07,03,22,27,17.70
2012,07,03,22,28,16.10
2012,07,03,22,29,11.30
2012,07,03,22,30,8.10
2012,07,03,22,31,11.30
2012,07,03,22,32,14.50
2012,07,03,22,33,12.90
2012,07,03,22,34,9.60
2012,07,03,22,35,11.30
2012,07,03,22,36,16.10
2012,07,03,22,37,16.10
2012,07,03,22,38,14.50
2012,07,03,22,39,14.50
2012,07,03,22,40,16.10
2012,07,03,22,41,16.10
2012,07,03,22,42,14.50
2012,07,03,22,43,16.10
2012,07,03,22,44,9.60
2012,07,03,22,45,14.50
2012,07,03,22,46,19.30
2012,07,03,22,47,17.70
2012,07,03,22,48,14.50
2012,07,03,22,49,16.10
2012,07,03,22,50,12.90
2012,07,03,22,51,12.90
2012,07,03,22,52,11.30
2012,07,03,22,53,17.70
2012,07,03,22,54,11.30
2012,07,03,22,55,11.30
2012,07,03,22,56,8.10
2012,07,03,22,57,8.10
2012,07,03,22,58,11.30
2012,07,03,22,59,6.40
2012,07,03,23,00,6.40
2012,07,03,23,01,8.10
2012,07,03,23,02,8.10
2012,07,03,23,03,11.30
2012,07,03,23,04,8.10
2012,07,03,23,05,9.60
2012,07,03,23,06,6.40
2012,07,03,23,07,8.10
2012,07,03,23,08,9.60
2012,07,03,23,09,9.60
2012,07,03,23,10,8.10
2012,07,03,23,11,8.10
2012,07,03,23,12,6.40
2012,07,03,23,13,9.60
2012,07,03,23,14,9.60
2012,07,03,23,15,6.40
2012,07,03,23,16,8.10
2012,07,03,23,17,8.10
2012,07,03,23,18,11.30
2012,07,03,23,19,9.60
2012,07,03,23,20,8.10
2012,07,03,23,21,12.90
2012,07,03,23,22,9.60
2012,07,03,23,23,9.60
2012,07,03,23,24,11.30
2012,07,03,23,25,9.60
2012,07,03,23,26,6.40
2012,07,03,23,27,6.40
2012,07,03,23,28,8.10
2012,07,03,23,29,8.10
2012,07,03,23,30,8.10
2012,07,03,23,31,6.40
2012,07,03,23,32,6.40
2012,07,03,23,33,6.40
2012,07,03,23,34,8.10
2012,07,03,23,35,4.80
2012,07,03,23,36,6.40
2012,07,03,23,37,4.80
2012,07,03,23,38,6.40
2012,07,03,23,39,6.40
2012,07,03,23,40,4.80
2012,07,03,23,41,3.20
2012,07,03,23,47,1.60
2012,07,03,23,54,1.60
2012,07,03,23,55,3.20
2012,07,03,23,56,4.80
2012,07,03,23,57,3.20
2012,07,03,23,58,4.80
2012,07,03,23,59,6.40
